Tiempo cada hora Temnoe

Hoy, 21 Octubre, Miércoles

Tiempo Temperatura Precipitaciones Viento Presión Humedad
00:00 -2°C° 0 mm 4 mps 745 mmHg 87%
01:00 -1°C° 0 mm 3 mps 746 mmHg 89%
02:00 -1°C° 0 mm 3 mps 746 mmHg 91%
03:00 -1°C° 0 mm 3 mps 746 mmHg 91%
04:00 -2°C° 0 mm 3 mps 746 mmHg 91%
05:00 -2°C° 0 mm 3 mps 746 mmHg 90%
06:00 -1°C° 0 mm 3 mps 747 mmHg 87%
07:00 0°C° 0 mm 3 mps 747 mmHg 83%
08:00 0°C° 0 mm 3 mps 747 mmHg 79%
09:00 +1°C° 0 mm 3 mps 747 mmHg 75%
10:00 +2°C° 0 mm 3 mps 746 mmHg 70%
11:00 +3°C° 0 mm 3 mps 746 mmHg 66%
12:00 +3°C° 0.1 mm 3 mps 746 mmHg 72%
13:00 +2°C° 0.1 mm 3 mps 746 mmHg 79%
14:00 +2°C° 0.1 mm 3 mps 745 mmHg 85%
15:00 +2°C° 0.3 mm 3 mps 745 mmHg 86%
16:00 +2°C° 0.3 mm 3 mps 744 mmHg 88%
17:00 +2°C° 0.3 mm 3 mps 744 mmHg 89%
18:00 +3°C° 0.2 mm 3 mps 744 mmHg 90%
19:00 +3°C° 0.2 mm 3 mps 744 mmHg 92%
20:00 +3°C° 0.2 mm 3 mps 744 mmHg 93%
21:00 +3°C° 0 mm 3 mps 743 mmHg 93%
22:00 +4°C° 0 mm 2 mps 743 mmHg 94%
23:00 +5°C° 0 mm 2 mps 743 mmHg 94%

Mañana, 22 Octubre, Jueves

Tiempo Temperatura Precipitaciones Viento Presión Humedad
00:00 +5°C° 0 mm 2 mps 743 mmHg 94%
01:00 +5°C° 0 mm 2 mps 743 mmHg 95%
02:00 +6°C° 0 mm 1 mps 743 mmHg 96%
03:00 +6°C° 0 mm 1 mps 743 mmHg 95%
04:00 +6°C° 0 mm 1 mps 743 mmHg 95%
05:00 +5°C° 0 mm 2 mps 742 mmHg 95%
06:00 +5°C° 0 mm 2 mps 743 mmHg 94%
07:00 +6°C° 0 mm 2 mps 743 mmHg 93%
08:00 +6°C° 0 mm 2 mps 743 mmHg 92%
09:00 +7°C° 0 mm 3 mps 742 mmHg 87%
10:00 +8°C° 0 mm 3 mps 742 mmHg 83%
11:00 +8°C° 0 mm 3 mps 742 mmHg 78%
12:00 +8°C° 0 mm 3 mps 742 mmHg 78%
13:00 +8°C° 0 mm 4 mps 741 mmHg 78%
14:00 +8°C° 0 mm 4 mps 741 mmHg 78%
15:00 +7°C° 0.3 mm 4 mps 740 mmHg 82%
16:00 +7°C° 0.3 mm 4 mps 740 mmHg 85%
17:00 +7°C° 0.3 mm 4 mps 739 mmHg 89%
18:00 +7°C° 0 mm 5 mps 739 mmHg 88%
19:00 +7°C° 0 mm 5 mps 739 mmHg 87%
20:00 +7°C° 0 mm 5 mps 738 mmHg 86%
21:00 +7°C° 0 mm 5 mps 738 mmHg 87%
22:00 +7°C° 0 mm 5 mps 738 mmHg 88%
23:00 +8°C° 0 mm 5 mps 738 mmHg 89%

Pasado mañana, 23 Octubre, Viernes

Tiempo Temperatura Precipitaciones Viento Presión Humedad
00:00 +8°C° 0 mm 5 mps 738 mmHg 90%
01:00 +8°C° 0 mm 5 mps 738 mmHg 91%
02:00 +7°C° 0 mm 6 mps 738 mmHg 92%
03:00 +8°C° 0 mm 6 mps 738 mmHg 92%
04:00 +8°C° 0 mm 6 mps 738 mmHg 91%
05:00 +8°C° 0 mm 6 mps 738 mmHg 91%
06:00 +8°C° 0 mm 6 mps 738 mmHg 92%
07:00 +8°C° 0 mm 6 mps 739 mmHg 92%
08:00 +8°C° 0 mm 5 mps 739 mmHg 92%
09:00 +9°C° 0 mm 5 mps 739 mmHg 88%
10:00 +10°C° 0 mm 5 mps 738 mmHg 84%
11:00 +12°C° 0 mm 5 mps 738 mmHg 79%
12:00 +13°C° 0 mm 5 mps 738 mmHg 78%
13:00 +13°C° 0 mm 5 mps 738 mmHg 76%
14:00 +14°C° 0 mm 5 mps 738 mmHg 75%
15:00 +13°C° 0 mm 5 mps 737 mmHg 78%
16:00 +13°C° 0 mm 6 mps 737 mmHg 81%
17:00 +11°C° 0 mm 6 mps 736 mmHg 83%
18:00 +11°C° 0.2 mm 6 mps 736 mmHg 85%
19:00 +11°C° 0.2 mm 6 mps 735 mmHg 86%
20:00 +11°C° 0.2 mm 6 mps 735 mmHg 88%
21:00 +11°C° 0.9 mm 6 mps 735 mmHg 89%
22:00 +11°C° 0.9 mm 6 mps 735 mmHg 90%
23:00 +11°C° 0.9 mm 6 mps 735 mmHg 91%

24 Octubre, Sábado

Tiempo Temperatura Precipitaciones Viento Presión Humedad
00:00 +10°C° 0 mm 6 mps 735 mmHg 90%
01:00 +10°C° 0 mm 6 mps 735 mmHg 89%
02:00 +10°C° 0 mm 6 mps 735 mmHg 89%
03:00 +9°C° 0 mm 5 mps 736 mmHg 90%
04:00 +9°C° 0 mm 5 mps 736 mmHg 92%
05:00 +8°C° 0 mm 5 mps 736 mmHg 93%
06:00 +8°C° 0 mm 5 mps 736 mmHg 92%
07:00 +8°C° 0 mm 5 mps 737 mmHg 91%
08:00 +8°C° 0 mm 5 mps 737 mmHg 90%
09:00 +8°C° 0 mm 4 mps 737 mmHg 88%
10:00 +10°C° 0 mm 4 mps 738 mmHg 85%
11:00 +10°C° 0 mm 3 mps 738 mmHg 82%
12:00 +10°C° 0 mm 3 mps 738 mmHg 81%
13:00 +10°C° 0 mm 3 mps 738 mmHg 79%
14:00 +10°C° 0 mm 3 mps 738 mmHg 77%
15:00 +10°C° 0 mm 2 mps 738 mmHg 80%
16:00 +10°C° 0 mm 1 mps 738 mmHg 82%
17:00 +10°C° 0 mm 1 mps 737 mmHg 85%
18:00 +10°C° 0 mm 1 mps 737 mmHg 86%
19:00 +10°C° 0 mm 1 mps 737 mmHg 87%
20:00 +9°C° 0 mm 1 mps 737 mmHg 88%
21:00 +9°C° 0 mm 1 mps 737 mmHg 88%
22:00 +8°C° 0 mm 2 mps 736 mmHg 88%
23:00 +8°C° 0 mm 2 mps 736 mmHg 89%

25 Octubre, Domingo

Tiempo Temperatura Precipitaciones Viento Presión Humedad
00:00 +8°C° 0.1 mm 3 mps 735 mmHg 89%
01:00 +8°C° 0.1 mm 4 mps 734 mmHg 89%
02:00 +8°C° 0.1 mm 4 mps 733 mmHg 89%
03:00 +8°C° 1.3 mm 5 mps 733 mmHg 91%
04:00 +8°C° 1.3 mm 5 mps 732 mmHg 93%
05:00 +9°C° 1.3 mm 6 mps 731 mmHg 95%
06:00 +8°C° 2 mm 6 mps 730 mmHg 93%
07:00 +8°C° 2 mm 5 mps 730 mmHg 92%
08:00 +8°C° 2 mm 5 mps 729 mmHg 90%
09:00 +9°C° 0.5 mm 5 mps 729 mmHg 88%
10:00 +9°C° 0.5 mm 5 mps 729 mmHg 85%
11:00 +9°C° 0.5 mm 5 mps 729 mmHg 83%
12:00 +10°C° 0.3 mm 4 mps 730 mmHg 84%
13:00 +10°C° 0.3 mm 4 mps 730 mmHg 85%
14:00 +10°C° 0.3 mm 4 mps 730 mmHg 87%
15:00 +8°C° 0.6 mm 5 mps 731 mmHg 88%
16:00 +8°C° 0.6 mm 6 mps 731 mmHg 89%
17:00 +6°C° 0.6 mm 7 mps 732 mmHg 90%
18:00 +6°C° 0.3 mm 8 mps 733 mmHg 89%
19:00 +6°C° 0.3 mm 8 mps 734 mmHg 87%
20:00 +6°C° 0.3 mm 8 mps 735 mmHg 85%
21:00 +6°C° 0 mm 8 mps 736 mmHg 85%
22:00 +6°C° 0 mm 7 mps 737 mmHg 85%
23:00 +6°C° 0 mm 7 mps 738 mmHg 84%

26 Octubre, Lunes

Tiempo Temperatura Precipitaciones Viento Presión Humedad
00:00 +6°C° 0 mm 7 mps 738 mmHg 84%
01:00 +5°C° 0 mm 7 mps 739 mmHg 84%
02:00 +5°C° 0 mm 6 mps 740 mmHg 84%
03:00 +5°C° 0 mm 6 mps 741 mmHg 84%
04:00 +6°C° 0 mm 5 mps 741 mmHg 84%
05:00 +5°C° 0 mm 5 mps 742 mmHg 85%
06:00 +5°C° 0 mm 5 mps 743 mmHg 85%
07:00 +3°C° 0 mm 5 mps 743 mmHg 85%
08:00 +4°C° 0 mm 4 mps 744 mmHg 85%
09:00 +5°C° 0 mm 4 mps 744 mmHg 79%
10:00 +6°C° 0 mm 4 mps 744 mmHg 74%
11:00 +7°C° 0 mm 4 mps 745 mmHg 68%
12:00 +7°C° 0 mm 4 mps 745 mmHg 67%
13:00 +7°C° 0 mm 4 mps 745 mmHg 66%
14:00 +9°C° 0 mm 3 mps 746 mmHg 65%
15:00 +8°C° 0 mm 3 mps 746 mmHg 71%
16:00 +7°C° 0 mm 3 mps 746 mmHg 76%
17:00 +6°C° 0 mm 2 mps 747 mmHg 82%
18:00 +5°C° 0 mm 2 mps 747 mmHg 84%
19:00 +5°C° 0 mm 2 mps 747 mmHg 85%
20:00 +5°C° 0 mm 2 mps 748 mmHg 87%
21:00 +4°C° 0 mm 2 mps 748 mmHg 86%
22:00 +4°C° 0 mm 2 mps 748 mmHg 86%
23:00 +5°C° 0 mm 1 mps 749 mmHg 85%

27 Octubre, Martes

Tiempo Temperatura Precipitaciones Viento Presión Humedad
00:00 +4°C° 0 mm 1 mps 749 mmHg 84%
01:00 +4°C° 0 mm 1 mps 749 mmHg 83%
02:00 +4°C° 0 mm 1 mps 749 mmHg 82%
03:00 +4°C° 0 mm 1 mps 750 mmHg 82%
04:00 +4°C° 0 mm 1 mps 750 mmHg 82%
05:00 +4°C° 0 mm 1 mps 750 mmHg 82%
06:00 +4°C° 0 mm 1 mps 751 mmHg 81%
07:00 +4°C° 0 mm 1 mps 751 mmHg 79%
08:00 +5°C° 0 mm 1 mps 751 mmHg 78%
09:00 +6°C° 0 mm 1 mps 751 mmHg 72%
10:00 +7°C° 0 mm 1 mps 752 mmHg 67%
11:00 +8°C° 0 mm 1 mps 752 mmHg 61%
12:00 +9°C° 0 mm 1 mps 752 mmHg 60%
13:00 +9°C° 0 mm 1 mps 752 mmHg 58%
14:00 +10°C° 0 mm 1 mps 752 mmHg 56%
15:00 +9°C° 0 mm 1 mps 752 mmHg 61%
16:00 +7°C° 0 mm 2 mps 752 mmHg 65%
17:00 +6°C° 0 mm 2 mps 752 mmHg 69%
18:00 +5°C° 0 mm 2 mps 752 mmHg 70%
19:00 +5°C° 0 mm 2 mps 752 mmHg 72%
20:00 +4°C° 0 mm 2 mps 752 mmHg 73%
21:00 +4°C° 0 mm 2 mps 752 mmHg 74%
22:00 +4°C° 0 mm 2 mps 752 mmHg 75%
23:00 +3°C° 0 mm 2 mps 753 mmHg 76%
Mostrar más

Necesitamos Su Consentimiento

Meteoprog y nuestros Proveedores de Servicios pueden almacenar y acceder a sus datos personales como cookies, identificadores de dispositivo u otras tecnologías similares de su dispositivo y procesar dichos datos para personalizar contenido y anuncios, además de ofrecer funciones de redes sociales y analizar el tráfico.

  • Almacenar y/o acceder a información en su dispositivo

    Se puede almacenar o acceder a cookies, identificadores de dispositivo u otra información de su dispositivo para los fines anteriormente indicados.

  • Anuncios y contenido personalizados, medición de anuncios y contenido, percepciones del público, y desarrollo de productos

    Los anuncios y el contenido pueden personalizarse en base a su perfil. Se pueden añadir más datos para personalizar mejor los anuncios y contenidos. Se puede medir el rendimiento de los anuncios y contenidos. Se puede obtener la percepción sobre el público que ha visto los anuncios y contenidos. Dichos datos pueden usarse para desarrollar o mejorar la experiencia del usuario, sistemas y software.

Al hacer clic en ‘Estoy De Acuerdo’ usted permitirá el uso de las cookies, identificadores de dispositivo, balizas web u otras tecnologías similares indicadas. Su configuración puede cambiarse desde el navegador de su dispositivo.

Para ciertos fines, los intereses legítimos pueden ser considerados por encima del consentimiento. Puede leer más sobre ello en nuestra Política de Privacidad y Cookies.